Rbgn^[z[y[W
メイン
   新天体発見情報
     Comet P/2020 W1 (Rankin)
投稿するにはまず登録を

フラット表示 前のトピック | 次のトピック
投稿者 スレッド
佐藤裕久
投稿日時: 2020-11-30 21:17
モデレータ
登録日: 2005-6-12
居住地: 日本
投稿: 2462
オンライン
Comet P/2020 W1 (Rankin)

David Rankinの通報によると、11月16日、Mt Lemmon 1.5-m 反射望遠鏡で得たCCD画像から
彗星を発見した。
この天体は、p.a. 250°に向かって明らかに尾が見え、頭部は恒星の輪郭より大きい(半値
全幅:FWHM)。
小惑星センターのPCCP webpageに公表後、J. G. Ries (テキサス大学, Austin, 11月17.19
日UT. McDonald天文台, 2.1-m 反射望遠鏡, i-バンド露出, 不明瞭で、南西に向かって約3"
の尾がある)や佐藤英貴氏(東京都文京区, iTelescope天文台, 11月17.2日UT、120秒露出9枚
のスタック, 0.43-m f/6.8 アストログラフ, Mayhill近郊, NM, 遠隔操作:中程度に集光した
8"のコマが見えるが尾はない。5".7の円形範囲で測定した光度は20.0等であった)らCCD位置
観測者によって彗星状と観測された。

彗星機能の報告は次の通り:

OC   Date        Reporter           Coma    Tail    PA          Exposures
H06  2020-11-17  H. Sato            8"                            9x120s
204  2020-11-18  A. Aletti          6"        4"    270

発見位置は次のとおり、

     2020 UT             R.A. (2000) Decl.       Mag.   Observer
     Nov. 16.34502    3 18 56.65   + 5 07 22.8   20.9   Rankin
          16.35015    3 18 56.49   + 5 07 22.5   20.8     "
          16.35338    3 18 56.50   + 5 07 22.4   20.0     "
          16.35529    3 18 56.36   + 5 07 22.1   20.2     "
          16.36043    3 18 56.20   + 5 07 21.5   20.5     "

MPCの楕円軌道要素、位置推算表は次のとおり、

Orbital elements:
    P/2020 W1 (Rankin)                                                          
Epoch 2020 Apr. 21.0 TT = JDT 2458960.5                                         
T 2020 Apr. 4.25226 TT                                  Veres                   
q   5.2877303            (2000.0)            P               Q                  
n   0.05114869     Peri.  264.78018     +0.85973413     -0.48673055             
a   7.1875306      Node   124.25854     +0.51042261     +0.80809219             
e   0.2643189      Incl.   10.79210     +0.01805495     +0.33178364             
P  19.3                                                                         
From 71 observations 2020 Aug. 29-Nov. 26, mean residual 0".4.                  
                                                                                
    P/2020 W1 (Rankin)                                                          
Epoch 2039 July 31.0 TT = JDT 2466000.5                                         
T 2039 July 31.01389 TT                                 Veres                   
q   5.2823269            (2000.0)            P               Q                  
n   0.05128019     Peri.  265.23891     +0.85730464     -0.49091927             
a   7.1752374      Node   124.08225     +0.51443042     +0.80536699             
e   0.2638115      Incl.   10.78669     +0.01975115     +0.33223830             
P  19.2                                                                         
From 71 observations 2020 Aug. 29-Nov. 26, mean residual 0".4.                  
                                                                                
    P/2020 W1 (Rankin)                                                          
Epoch 2020 Dec. 17.0 TT = JDT 2459200.5                                         
T 2020 Apr. 4.60732 TT                                  Veres                   
q   5.2878338            (2000.0)            P               Q                  
n   0.05108417     Peri.  264.81224     +0.85948190     -0.48717437             
a   7.1935817      Node   124.25610     +0.51084115     +0.80782549             
e   0.2649234      Incl.   10.79210     +0.01822599     +0.33178173             
P  19.3                                                                         
From 71 observations 2020 Aug. 29-Nov. 26, mean residual 0".4.                  
                                                                                
Ephemeris:
Date    TT    R. A. (2000) Decl.     Delta      r    Elong.  Phase   m1
2020 10 28    03 27 42.9 +05 40 06   4.4052  5.3468   159.4     3.7  20.5
...
2020 11 12    03 20 58.5 +05 13 17   4.3857  5.3555   167.2     2.3  20.5
...
2020 11 20    03 17 15.1 +05 03 15   4.4031  5.3604   164.2     2.9  20.5
...
2020 11 26    03 14 33.0 +04 58 14   4.4287  5.3642   159.5     3.7  20.5
2020 11 27    03 14 06.8 +04 57 37   4.4340  5.3649   158.6     3.8  20.5
2020 11 28    03 13 40.9 +04 57 04   4.4396  5.3655   157.7     4.0  20.5
...
2020 12 04    03 11 12.4 +04 55 12   4.4790  5.3694   152.0     4.9  20.6
...
2020 12 12    03 08 17.9 +04 56 36   4.5466  5.3748   144.0     6.2  20.6
...
2020 12 27    03 04 26.9 +05 11 32   4.7144  5.3852   128.8     8.2  20.7

(MPEC 2020-W170, CBET 4886) 

フラット表示 前のトピック | 次のトピック

題名 投稿者 日時
 » Comet P/2020 W1 (Rankin) 佐藤裕久 2020-11-30 21:17

投稿するにはまず登録を
 
© 1999 Tsutomu Seki.